Time,TemperatureF,DewpointF,PressureIn,WindDirection,WindDirectionDegrees,WindSpeedMPH,WindSpeedGustMPH,Humidity,HourlyPrecipIn,Conditions,Clouds,dailyrainin,SoftwareType,DateUTC
2013-08-03 00:02:00,83.0,-99.9,-100.00,SSE,152,4.0,6.0,-999,0.00,,,-99.99,,2013-08-03 05:02:00,
2013-08-03 00:12:00,83.0,-99.9,-100.00,SE,136,4.0,6.0,-999,0.00,,,-99.99,,2013-08-03 05:12:00,
2013-08-03 00:22:00,83.0,-99.9,-100.00,SE,142,4.0,6.0,-999,0.00,,,-99.99,,2013-08-03 05:22:00,
2013-08-03 00:32:00,83.0,-99.9,-100.00,SE,143,4.0,6.0,-999,0.00,,,-99.99,,2013-08-03 05:32:00,
2013-08-03 00:43:00,83.0,-99.9,-100.00,SE,138,4.0,7.0,-999,0.00,,,-99.99,,2013-08-03 05:43:00,
2013-08-03 00:53:00,81.0,-99.9,-100.00,SSE,150,3.0,5.0,-999,0.00,,,-99.99,,2013-08-03 05:53:00,
2013-08-03 01:02:00,81.0,-99.9,-100.00,SSE,162,3.0,4.0,-999,0.00,,,-99.99,,2013-08-03 06:02:00,
2013-08-03 01:12:00,81.0,-99.9,-100.00,SSE,162,3.0,4.0,-999,0.00,,,-99.99,,2013-08-03 06:12:00,
2013-08-03 01:23:00,82.0,-99.9,-100.00,SSE,160,3.0,5.0,-999,0.00,,,-99.99,,2013-08-03 06:23:00,
2013-08-03 01:33:00,82.0,-99.9,-100.00,SSE,149,3.0,5.0,-999,0.00,,,-99.99,,2013-08-03 06:33:00,
2013-08-03 01:42:00,82.0,-99.9,-100.00,SE,139,4.0,6.0,-999,0.00,,,-99.99,,2013-08-03 06:42:00,
2013-08-03 01:52:00,82.0,-99.9,-100.00,SSE,152,4.0,6.0,-999,0.00,,,-99.99,,2013-08-03 06:52:00,
2013-08-03 02:02:00,83.0,-99.9,-100.00,SSE,148,5.0,7.0,-999,0.00,,,-99.99,,2013-08-03 07:02:00,
2013-08-03 02:12:00,83.0,-99.9,-100.00,SSE,158,5.0,7.0,-999,0.00,,,-99.99,,2013-08-03 07:12:00,
2013-08-03 02:22:00,83.0,-99.9,-100.00,SE,145,5.0,7.0,-999,0.00,,,-99.99,,2013-08-03 07:22:00,
2013-08-03 02:33:00,83.0,-99.9,-100.00,SE,135,5.0,9.0,-999,0.00,,,-99.99,,2013-08-03 07:33:00,
2013-08-03 02:43:00,82.0,-99.9,-100.00,SE,134,4.0,6.0,-999,0.00,,,-99.99,,2013-08-03 07:43:00,
2013-08-03 02:53:00,82.0,-99.9,-100.00,SSE,159,3.0,5.0,-999,0.00,,,-99.99,,2013-08-03 07:53:00,
2013-08-03 03:02:00,81.0,-99.9,-100.00,SSE,158,4.0,6.0,-999,0.00,,,-99.99,,2013-08-03 08:02:00,
2013-08-03 03:12:00,82.0,-99.9,-100.00,SE,138,4.0,6.0,-999,0.00,,,-99.99,,2013-08-03 08:12:00,
2013-08-03 03:22:00,81.0,-99.9,-100.00,South,170,3.0,5.0,-999,0.00,,,-99.99,,2013-08-03 08:22:00,
2013-08-03 03:32:00,80.0,-99.9,-100.00,SSE,162,1.0,2.0,-999,0.00,,,-99.99,,2013-08-03 08:32:00,
2013-08-03 03:43:00,80.0,-99.9,-100.00,North,0,0.0,0.0,-999,0.00,,,-99.99,,2013-08-03 08:43:00,
2013-08-03 03:52:00,80.0,-99.9,-100.00,North,0,0.0,0.0,-999,0.00,,,-99.99,,2013-08-03 08:52:00,
2013-08-03 04:02:00,80.0,-99.9,-100.00,NW,321,7.0,10.0,-999,0.00,,,-99.99,,2013-08-03 09:02:00,
2013-08-03 04:12:00,81.0,-99.9,-100.00,NW,311,3.0,6.0,-999,0.00,,,-99.99,,2013-08-03 09:12:00,
2013-08-03 04:22:00,82.0,-99.9,-100.00,NW,326,4.0,6.0,-999,0.00,,,-99.99,,2013-08-03 09:22:00,
2013-08-03 04:32:00,82.0,-99.9,-100.00,NNW,346,1.0,3.0,-999,0.00,,,-99.99,,2013-08-03 09:32:00,
2013-08-03 04:43:00,81.0,-99.9,-100.00,North,0,0.0,0.0,-999,0.00,,,-99.99,,2013-08-03 09:43:00,
2013-08-03 04:53:00,81.0,-99.9,-100.00,North,0,0.0,0.0,-999,0.00,,,-99.99,,2013-08-03 09:53:00,
2013-08-03 05:02:00,82.0,-99.9,-100.00,North,0,0.0,0.0,-999,0.00,,,-99.99,,2013-08-03 10:02:00,
2013-08-03 05:12:00,80.0,-99.9,-100.00,North,0,0.0,0.0,-999,0.00,,,-99.99,,2013-08-03 10:12:00,
2013-08-03 05:22:00,80.0,-99.9,-100.00,North,0,0.0,0.0,-999,0.00,,,-99.99,,2013-08-03 10:22:00,
2013-08-03 05:33:00,79.0,-99.9,-100.00,North,4,0.0,1.0,-999,0.00,,,-99.99,,2013-08-03 10:33:00,
2013-08-03 05:43:00,79.0,-99.9,-100.00,North,0,0.0,0.0,-999,0.00,,,-99.99,,2013-08-03 10:43:00,
2013-08-03 05:53:00,79.0,-99.9,-100.00,North,0,0.0,0.0,-999,0.00,,,-99.99,,2013-08-03 10:53:00,
2013-08-03 06:02:00,80.0,-99.9,-100.00,North,0,0.0,0.0,-999,0.00,,,-99.99,,2013-08-03 11:02:00,
2013-08-03 06:12:00,80.0,-99.9,-100.00,NE,35,1.0,3.0,-999,0.00,,,-99.99,,2013-08-03 11:12:00,
2013-08-03 06:23:00,80.0,-99.9,-100.00,NNE,31,3.0,4.0,-999,0.00,,,-99.99,,2013-08-03 11:23:00,
2013-08-03 06:32:00,80.0,-99.9,-100.00,NE,48,4.0,5.0,-999,0.00,,,-99.99,,2013-08-03 11:32:00,
2013-08-03 06:43:00,81.0,-99.9,-100.00,NE,38,4.0,7.0,-999,0.00,,,-99.99,,2013-08-03 11:43:00,
2013-08-03 06:53:00,80.0,-99.9,-100.00,NNE,28,5.0,8.0,-999,0.00,,,-99.99,,2013-08-03 11:53:00,
2013-08-03 07:03:00,81.0,-99.9,-100.00,NE,51,7.0,9.0,-999,0.00,,,-99.99,,2013-08-03 12:03:00,
2013-08-03 07:12:00,81.0,-99.9,-100.00,NE,46,7.0,12.0,-999,0.00,,,-99.99,,2013-08-03 12:12:00,
2013-08-03 07:22:00,80.0,-99.9,-100.00,NNE,27,7.0,10.0,-999,0.00,,,-99.99,,2013-08-03 12:22:00,
2013-08-03 07:33:00,80.0,-99.9,-100.00,North,4,7.0,10.0,-999,0.00,,,-99.99,,2013-08-03 12:33:00,
2013-08-03 07:43:00,80.0,-99.9,-100.00,North,1,8.0,11.0,-999,0.00,,,-99.99,,2013-08-03 12:43:00,
2013-08-03 07:53:00,79.0,-99.9,-100.00,NNE,28,4.0,6.0,-999,0.00,,,-99.99,,2013-08-03 12:53:00,
2013-08-03 08:02:00,78.0,-99.9,-100.00,NE,38,5.0,8.0,-999,0.00,,,-99.99,,2013-08-03 13:02:00,
2013-08-03 08:12:00,75.0,-99.9,-100.00,NE,37,5.0,8.0,-999,0.00,,,-99.99,,2013-08-03 13:12:00,
2013-08-03 08:22:00,75.0,-99.9,-100.00,East,79,6.0,9.0,-999,0.00,,,-99.99,,2013-08-03 13:22:00,
2013-08-03 08:33:00,75.0,-99.9,-100.00,East,93,7.0,9.0,-999,0.00,,,-99.99,,2013-08-03 13:33:00,
2013-08-03 08:43:00,75.0,-99.9,-100.00,ESE,115,6.0,9.0,-999,0.00,,,-99.99,,2013-08-03 13:43:00,
2013-08-03 08:52:00,75.0,-99.9,-100.00,ESE,121,6.0,9.0,-999,0.00,,,-99.99,,2013-08-03 13:52:00,
2013-08-03 09:02:00,75.0,-99.9,-100.00,ESE,121,7.0,10.0,-999,0.00,,,-99.99,,2013-08-03 14:02:00,
2013-08-03 09:12:00,75.0,-99.9,-100.00,SE,131,7.0,9.0,-999,0.00,,,-99.99,,2013-08-03 14:12:00,
2013-08-03 09:22:00,75.0,-99.9,-100.00,ESE,115,9.0,16.0,-999,0.00,,,-99.99,,2013-08-03 14:22:00,
2013-08-03 09:33:00,74.0,-99.9,-100.00,ESE,120,10.0,15.0,-999,0.00,,,-99.99,,2013-08-03 14:33:00,
2013-08-03 09:43:00,73.0,-99.9,-100.00,SE,129,9.0,13.0,-999,0.00,,,-99.99,,2013-08-03 14:43:00,
2013-08-03 09:52:00,73.0,-99.9,-100.00,ESE,120,11.0,15.0,-999,0.00,,,-99.99,,2013-08-03 14:52:00,
2013-08-03 10:02:00,72.0,-99.9,-100.00,ESE,108,8.0,12.0,-999,0.00,,,-99.99,,2013-08-03 15:02:00,
2013-08-03 10:12:00,72.0,-99.9,-100.00,SE,138,13.0,18.0,-999,0.00,,,-99.99,,2013-08-03 15:12:00,
2013-08-03 10:23:00,72.0,-99.9,-100.00,SE,124,12.0,19.0,-999,0.00,,,-99.99,,2013-08-03 15:23:00,
2013-08-03 10:32:00,72.0,-99.9,-100.00,ESE,122,9.0,13.0,-999,0.00,,,-99.99,,2013-08-03 15:32:00,
2013-08-03 10:43:00,72.0,-99.9,-100.00,SE,135,4.0,7.0,-999,0.00,,,-99.99,,2013-08-03 15:43:00,
2013-08-03 10:53:00,72.0,-99.9,-100.00,East,86,6.0,10.0,-999,0.00,,,-99.99,,2013-08-03 15:53:00,
2013-08-03 11:02:00,72.0,-99.9,-100.00,ESE,120,4.0,7.0,-999,0.00,,,-99.99,,2013-08-03 16:02:00,
2013-08-03 11:13:00,72.0,-99.9,-100.00,ESE,122,7.0,11.0,-999,0.00,,,-99.99,,2013-08-03 16:13:00,
2013-08-03 11:23:00,72.0,-99.9,-100.00,East,98,6.0,8.0,-999,0.00,,,-99.99,,2013-08-03 16:23:00,
2013-08-03 11:33:00,72.0,-99.9,-100.00,East,93,5.0,8.0,-999,0.00,,,-99.99,,2013-08-03 16:33:00,
2013-08-03 11:43:00,72.0,-99.9,-100.00,SSE,158,5.0,7.0,-999,0.00,,,-99.99,,2013-08-03 16:43:00,
2013-08-03 11:53:00,73.0,-99.9,-100.00,SE,131,4.0,5.0,-999,0.00,,,-99.99,,2013-08-03 16:53:00,
2013-08-03 12:03:00,73.0,-99.9,-100.00,ESE,105,5.0,8.0,-999,0.00,,,-99.99,,2013-08-03 17:03:00,
2013-08-03 12:12:00,74.0,-99.9,-100.00,East,100,8.0,11.0,-999,0.00,,,-99.99,,2013-08-03 17:12:00,
2013-08-03 12:22:00,74.0,-99.9,-100.00,East,101,8.0,10.0,-999,0.00,,,-99.99,,2013-08-03 17:22:00,
2013-08-03 12:33:00,74.0,-99.9,-100.00,ESE,110,9.0,12.0,-999,0.00,,,-99.99,,2013-08-03 17:33:00,
2013-08-03 12:43:00,75.0,-99.9,-100.00,SE,135,5.0,10.0,-999,0.00,,,-99.99,,2013-08-03 17:43:00,
2013-08-03 12:52:00,76.0,-99.9,-100.00,ESE,105,6.0,9.0,-999,0.00,,,-99.99,,2013-08-03 17:52:00,
2013-08-03 13:02:00,76.0,-99.9,-100.00,East,96,8.0,11.0,-999,0.00,,,-99.99,,2013-08-03 18:02:00,
2013-08-03 13:12:00,76.0,-99.9,-100.00,East,100,9.0,13.0,-999,0.00,,,-99.99,,2013-08-03 18:12:00,
2013-08-03 13:22:00,76.0,-99.9,-100.00,East,94,8.0,13.0,-999,0.00,,,-99.99,,2013-08-03 18:22:00,
2013-08-03 13:32:00,77.0,-99.9,-100.00,ESE,114,8.0,13.0,-999,0.00,,,-99.99,,2013-08-03 18:32:00,
2013-08-03 13:43:00,77.0,-99.9,-100.00,ESE,111,8.0,12.0,-999,0.00,,,-99.99,,2013-08-03 18:43:00,
2013-08-03 13:53:00,77.0,-99.9,-100.00,ESE,120,8.0,11.0,-999,0.00,,,-99.99,,2013-08-03 18:53:00,
2013-08-03 14:03:00,77.0,-99.9,-100.00,SE,128,7.0,10.0,-999,0.00,,,-99.99,,2013-08-03 19:03:00,
2013-08-03 14:12:00,78.0,-99.9,-100.00,SE,124,6.0,10.0,-999,0.00,,,-99.99,,2013-08-03 19:12:00,
2013-08-03 14:22:00,78.0,-99.9,-100.00,SE,136,5.0,9.0,-999,0.00,,,-99.99,,2013-08-03 19:22:00,
2013-08-03 14:33:00,78.0,-99.9,-100.00,South,173,4.0,7.0,-999,0.00,,,-99.99,,2013-08-03 19:33:00,
2013-08-03 14:43:00,77.0,-99.9,-100.00,SE,124,6.0,9.0,-999,0.00,,,-99.99,,2013-08-03 19:43:00,
2013-08-03 14:53:00,78.0,-99.9,-100.00,SE,142,6.0,8.0,-999,0.00,,,-99.99,,2013-08-03 19:53:00,
2013-08-03 15:02:00,78.0,-99.9,-100.00,ESE,121,7.0,9.0,-999,0.00,,,-99.99,,2013-08-03 20:02:00,
2013-08-03 15:12:00,79.0,-99.9,-100.00,SE,136,7.0,9.0,-999,0.00,,,-99.99,,2013-08-03 20:12:00,
2013-08-03 15:22:00,79.0,-99.9,-100.00,SE,141,6.0,8.0,-999,0.00,,,-99.99,,2013-08-03 20:22:00,
2013-08-03 15:32:00,79.0,-99.9,-100.00,ESE,115,5.0,8.0,-999,0.00,,,-99.99,,2013-08-03 20:32:00,
2013-08-03 15:42:00,80.0,-99.9,-100.00,SE,131,6.0,8.0,-999,0.00,,,-99.99,,2013-08-03 20:42:00,
2013-08-03 15:52:00,80.0,-99.9,-100.00,SE,142,8.0,11.0,-999,0.00,,,-99.99,,2013-08-03 20:52:00,
2013-08-03 16:02:00,81.0,-99.9,-100.00,East,101,7.0,11.0,-999,0.00,,,-99.99,,2013-08-03 21:02:00,
2013-08-03 16:12:00,81.0,-99.9,-100.00,SE,129,8.0,13.0,-999,0.00,,,-99.99,,2013-08-03 21:12:00,
2013-08-03 16:22:00,80.0,-99.9,-100.00,SE,139,8.0,10.0,-999,0.00,,,-99.99,,2013-08-03 21:22:00,
2013-08-03 16:32:00,80.0,-99.9,-100.00,ESE,107,7.0,9.0,-999,0.00,,,-99.99,,2013-08-03 21:32:00,
2013-08-03 16:42:00,80.0,-99.9,-100.00,ESE,121,7.0,10.0,-999,0.00,,,-99.99,,2013-08-03 21:42:00,
2013-08-03 16:52:00,80.0,-99.9,-100.00,ESE,113,6.0,9.0,-999,0.00,,,-99.99,,2013-08-03 21:52:00,
2013-08-03 17:02:00,79.0,-99.9,-100.00,ESE,122,4.0,7.0,-999,0.00,,,-99.99,,2013-08-03 22:02:00,
2013-08-03 17:12:00,79.0,-99.9,-100.00,SE,127,4.0,7.0,-999,0.00,,,-99.99,,2013-08-03 22:12:00,
2013-08-03 17:22:00,79.0,-99.9,-100.00,East,101,5.0,7.0,-999,0.00,,,-99.99,,2013-08-03 22:22:00,
2013-08-03 17:33:00,79.0,-99.9,-100.00,ESE,120,5.0,7.0,-999,0.00,,,-99.99,,2013-08-03 22:33:00,
2013-08-03 17:43:00,79.0,-99.9,-100.00,SE,127,5.0,7.0,-999,0.00,,,-99.99,,2013-08-03 22:43:00,
2013-08-03 17:52:00,79.0,-99.9,-100.00,SE,125,4.0,6.0,-999,0.00,,,-99.99,,2013-08-03 22:52:00,
2013-08-03 18:02:00,80.0,-99.9,-100.00,ESE,120,3.0,5.0,-999,0.00,,,-99.99,,2013-08-03 23:02:00,
2013-08-03 18:12:00,80.0,-99.9,-100.00,ESE,110,2.0,4.0,-999,0.00,,,-99.99,,2013-08-03 23:12:00,
2013-08-03 18:22:00,79.0,-99.9,-100.00,ENE,66,2.0,3.0,-999,0.00,,,-99.99,,2013-08-03 23:22:00,
2013-08-03 18:32:00,79.0,-99.9,-100.00,ENE,77,3.0,4.0,-999,0.00,,,-99.99,,2013-08-03 23:32:00,
2013-08-03 18:43:00,79.0,-99.9,-100.00,ESE,110,3.0,4.0,-999,0.00,,,-99.99,,2013-08-03 23:43:00,
2013-08-03 18:52:00,79.0,-99.9,-100.00,East,87,4.0,6.0,-999,0.00,,,-99.99,,2013-08-03 23:52:00,
2013-08-03 19:03:00,80.0,-99.9,-100.00,East,80,3.0,5.0,-999,0.00,,,-99.99,,2013-08-04 00:03:00,
2013-08-03 19:12:00,80.0,-99.9,-100.00,NE,46,3.0,4.0,-999,0.00,,,-99.99,,2013-08-04 00:12:00,
2013-08-03 19:22:00,80.0,-99.9,-100.00,East,100,3.0,4.0,-999,0.00,,,-99.99,,2013-08-04 00:22:00,
2013-08-03 19:32:00,80.0,-99.9,-100.00,NE,46,3.0,4.0,-999,0.00,,,-99.99,,2013-08-04 00:32:00,
2013-08-03 19:43:00,79.0,-99.9,-100.00,ENE,63,3.0,4.0,-999,0.00,,,-99.99,,2013-08-04 00:43:00,
2013-08-03 19:53:00,80.0,-99.9,-100.00,East,100,3.0,5.0,-999,0.00,,,-99.99,,2013-08-04 00:53:00,
2013-08-03 20:02:00,79.0,-99.9,-100.00,North,0,0.0,0.0,-999,0.00,,,-99.99,,2013-08-04 01:02:00,
2013-08-03 20:12:00,79.0,-99.9,-100.00,East,87,1.0,3.0,-999,0.00,,,-99.99,,2013-08-04 01:12:00,
2013-08-03 20:22:00,79.0,-99.9,-100.00,East,93,2.0,4.0,-999,0.00,,,-99.99,,2013-08-04 01:22:00,
2013-08-03 20:32:00,79.0,-99.9,-100.00,East,90,3.0,4.0,-999,0.00,,,-99.99,,2013-08-04 01:32:00,
2013-08-03 20:42:00,79.0,-99.9,-100.00,SE,129,2.0,3.0,-999,0.00,,,-99.99,,2013-08-04 01:42:00,
2013-08-03 20:53:00,78.0,-99.9,-100.00,North,0,0.0,0.0,-999,0.00,,,-99.99,,2013-08-04 01:53:00,
2013-08-03 21:02:00,78.0,-99.9,-100.00,North,0,0.0,0.0,-999,0.00,,,-99.99,,2013-08-04 02:02:00,
2013-08-03 21:12:00,78.0,-99.9,-100.00,North,0,0.0,0.0,-999,0.00,,,-99.99,,2013-08-04 02:12:00,
2013-08-03 21:22:00,78.0,-99.9,-100.00,North,0,0.0,0.0,-999,0.00,,,-99.99,,2013-08-04 02:22:00,
2013-08-03 21:32:00,78.0,-99.9,-100.00,North,0,0.0,0.0,-999,0.00,,,-99.99,,2013-08-04 02:32:00,
2013-08-03 21:42:00,77.0,-99.9,-100.00,North,0,0.0,0.0,-999,0.00,,,-99.99,,2013-08-04 02:42:00,
2013-08-03 21:52:00,77.0,-99.9,-100.00,North,0,0.0,0.0,-999,0.00,,,-99.99,,2013-08-04 02:52:00,
2013-08-03 22:02:00,77.0,-99.9,-100.00,North,0,0.0,0.0,-999,0.00,,,-99.99,,2013-08-04 03:02:00,
2013-08-03 22:12:00,77.0,-99.9,-100.00,North,0,0.0,0.0,-999,0.00,,,-99.99,,2013-08-04 03:12:00,
2013-08-03 22:22:00,77.0,-99.9,-100.00,North,0,0.0,0.0,-999,0.00,,,-99.99,,2013-08-04 03:22:00,
2013-08-03 22:32:00,77.0,-99.9,-100.00,North,0,0.0,0.0,-999,0.00,,,-99.99,,2013-08-04 03:32:00,
2013-08-03 22:42:00,77.0,-99.9,-100.00,North,0,0.0,0.0,-999,0.00,,,-99.99,,2013-08-04 03:42:00,
2013-08-03 22:52:00,76.0,-99.9,-100.00,North,0,0.0,0.0,-999,0.00,,,-99.99,,2013-08-04 03:52:00,
2013-08-03 23:03:00,76.0,-99.9,-100.00,North,0,0.0,0.0,-999,0.00,,,-99.99,,2013-08-04 04:03:00,
2013-08-03 23:12:00,77.0,-99.9,-100.00,North,0,0.0,0.0,-999,0.00,,,-99.99,,2013-08-04 04:12:00,
2013-08-03 23:23:00,77.0,-99.9,-100.00,North,0,0.0,0.0,-999,0.00,,,-99.99,,2013-08-04 04:23:00,
2013-08-03 23:32:00,76.0,-99.9,-100.00,North,0,0.0,0.0,-999,0.00,,,-99.99,,2013-08-04 04:32:00,
2013-08-03 23:42:00,76.0,-99.9,-100.00,North,0,0.0,0.0,-999,0.00,,,-99.99,,2013-08-04 04:42:00,
2013-08-03 23:53:00,76.0,-99.9,-100.00,North,0,0.0,0.0,-999,0.00,,,-99.99,,2013-08-04 04:53:00,